Thomson Majesty — 9HA2188 — position and weather

sailwx.info

Track history (hours):
 
Tides and Currents Weather Stations Pressure Air Temp Water Temp Dewpoint Dewpoint Depression Visibility Wind Speed Wind Dir Waves Ship Positions

Thomson Majesty

Last reported at 2016-Feb-10 19:33 UTC. Time now 2016-Feb-12 09:53 UTC.
Position N 29°46' W 017°29'.

Length 207 m; draft 6.2 m.

Type: Ship. MMSI: 248124000.

Date/timePositionNaut miles runAvg speedWind from/ knotsBaromVisibWave heightAir tempDewpointWater temp
2016-Feb-10 19:33N 29°46' W 017°29'77 4.8
2016-Feb-10 03:31N 28°40' W 016°44'1212.4
2016-Feb-10 02:32N 28°40' W 016°30'1212.1
2016-Feb-10 01:32N 28°40' W 016°17'1111.4
2016-Feb-10 00:33N 28°37' W 016°04'10 9.7
2016-Feb-09 23:33N 28°29' W 016°11'3 2.9
2016-Feb-09 22:25N 28°28' W 016°15'0 0.0
2016-Feb-09 21:22N 28°28' W 016°15'0 0.0
2016-Feb-09 20:25N 28°28' W 016°15'0 0.0
2016-Feb-09 19:28N 28°28' W 016°15'0 0.0
2016-Feb-09 18:28N 28°28' W 016°15'0 0.0
2016-Feb-09 17:31N 28°28' W 016°15'0 0.0
2016-Feb-09 16:31N 28°28' W 016°15'0 0.0
2016-Feb-09 15:28N 28°28' W 016°15'0 0.0
2016-Feb-09 14:28N 28°28' W 016°15'0 0.0
2016-Feb-09 13:19N 28°28' W 016°15'0 0.0
2016-Feb-09 12:19N 28°28' W 016°15'0 0.0
2016-Feb-09 11:22N 28°28' W 016°15'0 0.0
2016-Feb-09 10:07N 28°28' W 016°15'0 0.0
2016-Feb-09 09:25N 28°28' W 016°15'0 0.0
2016-Feb-09 08:25N 28°28' W 016°15'0 0.0
2016-Feb-09 07:25N 28°28' W 016°15'0 0.0
2016-Feb-09 06:28N 28°28' W 016°15'0 0.0
2016-Feb-09 05:20N 28°28' W 016°15'6 7.3
2016-Feb-09 04:33N 28°26' W 016°09'1010.2
2016-Feb-09 03:33N 28°25' W 015°57'1111.1
2016-Feb-09 02:33N 28°33' W 015°49'9 8.9
2016-Feb-09 01:33N 28°35' W 015°39'1111.3
2016-Feb-09 00:33N 28°28' W 015°29'1111.1
2016-Feb-08 23:33N 28°20' W 015°20'1110.8
2016-Feb-08 22:33N 28°09' W 015°22'3 2.7
2016-Feb-08 21:34N 28°08' W 015°25'0 0.0
2016-Feb-08 20:34N 28°08' W 015°25'0 0.0
2016-Feb-08 19:34N 28°08' W 015°25'0 0.0
2016-Feb-08 18:33N 28°08' W 015°25'0 0.0
2016-Feb-08 17:33N 28°08' W 015°25'0 0.0
2016-Feb-08 16:33N 28°08' W 015°25'0 0.0
2016-Feb-08 15:33N 28°08' W 015°25'0 0.0
2016-Feb-08 14:33N 28°08' W 015°25'0 0.0
2016-Feb-08 13:33N 28°08' W 015°25'0 0.0
2016-Feb-08 12:33N 28°08' W 015°25'0 0.0
2016-Feb-08 11:33N 28°08' W 015°25'0 0.0
2016-Feb-08 10:33N 28°08' W 015°25'  
2016-Feb-03 02:17N 28°03' W 016°18'1111.4
2016-Feb-03 01:17N 28°11' W 016°09'811.5
2016-Feb-03 00:33N 28°18' W 016°04'10 9.9
2016-Feb-02 23:33N 28°27' W 016°11'4 3.6
2016-Feb-02 22:32N 28°28' W 016°15'0 0.0
2016-Feb-02 21:29N 28°28' W 016°15'0 0.0
2016-Feb-02 20:32N 28°28' W 016°15'0 0.0
2016-Feb-02 19:20N 28°28' W 016°15'0 0.0
2016-Feb-02 18:23N 28°28' W 016°15'0 0.0
2016-Feb-02 17:32N 28°28' W 016°15'0 0.0
2016-Feb-02 16:20N 28°28' W 016°15'0 0.0
2016-Feb-02 15:26N 28°28' W 016°15'0 0.0
2016-Feb-02 14:26N 28°28' W 016°15'0 0.0
2016-Feb-02 13:26N 28°28' W 016°15'0 0.0
2016-Feb-02 12:29N 28°28' W 016°15'0 0.0
2016-Feb-02 11:29N 28°28' W 016°15'0 0.0
2016-Feb-02 10:29N 28°28' W 016°15'0 0.0
2016-Feb-02 09:29N 28°28' W 016°15'0 0.0
2016-Feb-02 08:32N 28°28' W 016°15'0 0.0
2016-Feb-02 07:29N 28°28' W 016°15'0 0.0
2016-Feb-02 06:32N 28°28' W 016°15'0 0.0
2016-Feb-02 05:33N 28°28' W 016°15'7 7.5
2016-Feb-02 04:34N 28°27' W 016°06'1110.9
2016-Feb-02 03:34N 28°28' W 015°54'1010.4
2016-Feb-02 02:34N 28°35' W 015°46'9 9.2
2016-Feb-02 01:34N 28°32' W 015°36'10 9.9
2016-Feb-02 00:34N 28°26' W 015°27'9 9.3
2016-Feb-01 23:34N 28°19' W 015°21'1010.2
2016-Feb-01 22:33N 28°09' W 015°23'2 2.1
2016-Feb-01 21:26N 28°08' W 015°25'0 0.0
2016-Feb-01 20:29N 28°08' W 015°25'0 0.0
2016-Feb-01 19:29N 28°08' W 015°25'0 0.0
2016-Feb-01 18:29N 28°08' W 015°25'0 0.0
2016-Feb-01 17:32N 28°08' W 015°25'0 0.0
2016-Feb-01 16:32N 28°08' W 015°25'0 0.0
2016-Feb-01 15:32N 28°08' W 015°25'0 0.0
2016-Feb-01 14:32N 28°08' W 015°25'0 0.0
2016-Feb-01 13:32N 28°08' W 015°25'0 0.0
2016-Feb-01 12:32N 28°08' W 015°25'0 0.0
2016-Feb-01 11:32N 28°08' W 015°25'0 0.0
2016-Feb-01 10:23N 28°08' W 015°25'0 0.0
2016-Feb-01 09:23N 28°08' W 015°25'0 0.0
2016-Feb-01 08:26N 28°08' W 015°25'0 0.0
2016-Feb-01 07:26N 28°08' W 015°25'0 0.0
2016-Feb-01 06:30N 28°08' W 015°25'7 7.6
2016-Feb-01 05:33N 28°07' W 015°17'1211.8
2016-Feb-01 04:33N 28°07' W 015°04'1110.8
2016-Feb-01 03:33N 28°05' W 014°52'1111.1
2016-Feb-01 02:33N 28°01' W 014°40'1110.8
2016-Feb-01 01:33N 27°57' W 014°29'1111.3
2016-Feb-01 00:33N 27°59' W 014°16'1211.7
2016-Jan-31 23:33N 28°04' W 014°04'1211.7
2016-Jan-31 22:33N 28°09' W 013°52'1211.7
2016-Jan-31 21:30N 28°21' W 013°46'1111.5
2016-Jan-31 20:33N 28°31' W 013°42'1111.3
2016-Jan-31 19:33N 28°41' W 013°38'  
Track history (hours):
 
Tides and Currents Weather Stations Pressure Air Temp Water Temp Dewpoint Dewpoint Depression Visibility Wind Speed Wind Dir Waves Ship Positions

Thomson Majesty

Last reported at 2016-Feb-10 19:33 UTC. Time now 2016-Feb-12 09:53 UTC.
Position N 29°46' W 017°29'.

Length 207 m; draft 6.2 m.

Type: Ship. MMSI: 248124000.

Date/timePositionNaut miles runAvg speedWind from/ knotsBaromVisibWave heightAir tempDewpointWater temp
2016-Feb-10 19:33N 29°46' W 017°29'77 4.8
2016-Feb-10 03:31N 28°40' W 016°44'1212.4
2016-Feb-10 02:32N 28°40' W 016°30'1212.1
2016-Feb-10 01:32N 28°40' W 016°17'1111.4
2016-Feb-10 00:33N 28°37' W 016°04'10 9.7
2016-Feb-09 23:33N 28°29' W 016°11'3 2.9
2016-Feb-09 22:25N 28°28' W 016°15'0 0.0
2016-Feb-09 21:22N 28°28' W 016°15'0 0.0
2016-Feb-09 20:25N 28°28' W 016°15'0 0.0
2016-Feb-09 19:28N 28°28' W 016°15'0 0.0
2016-Feb-09 18:28N 28°28' W 016°15'0 0.0
2016-Feb-09 17:31N 28°28' W 016°15'0 0.0
2016-Feb-09 16:31N 28°28' W 016°15'0 0.0
2016-Feb-09 15:28N 28°28' W 016°15'0 0.0
2016-Feb-09 14:28N 28°28' W 016°15'0 0.0
2016-Feb-09 13:19N 28°28' W 016°15'0 0.0
2016-Feb-09 12:19N 28°28' W 016°15'0 0.0
2016-Feb-09 11:22N 28°28' W 016°15'0 0.0
2016-Feb-09 10:07N 28°28' W 016°15'0 0.0
2016-Feb-09 09:25N 28°28' W 016°15'0 0.0
2016-Feb-09 08:25N 28°28' W 016°15'0 0.0
2016-Feb-09 07:25N 28°28' W 016°15'0 0.0
2016-Feb-09 06:28N 28°28' W 016°15'0 0.0
2016-Feb-09 05:20N 28°28' W 016°15'6 7.3
2016-Feb-09 04:33N 28°26' W 016°09'1010.2
2016-Feb-09 03:33N 28°25' W 015°57'1111.1
2016-Feb-09 02:33N 28°33' W 015°49'9 8.9
2016-Feb-09 01:33N 28°35' W 015°39'1111.3
2016-Feb-09 00:33N 28°28' W 015°29'1111.1
2016-Feb-08 23:33N 28°20' W 015°20'1110.8
2016-Feb-08 22:33N 28°09' W 015°22'3 2.7
2016-Feb-08 21:34N 28°08' W 015°25'0 0.0
2016-Feb-08 20:34N 28°08' W 015°25'0 0.0
2016-Feb-08 19:34N 28°08' W 015°25'0 0.0
2016-Feb-08 18:33N 28°08' W 015°25'0 0.0
2016-Feb-08 17:33N 28°08' W 015°25'0 0.0
2016-Feb-08 16:33N 28°08' W 015°25'0 0.0
2016-Feb-08 15:33N 28°08' W 015°25'0 0.0
2016-Feb-08 14:33N 28°08' W 015°25'0 0.0
2016-Feb-08 13:33N 28°08' W 015°25'0 0.0
2016-Feb-08 12:33N 28°08' W 015°25'0 0.0
2016-Feb-08 11:33N 28°08' W 015°25'0 0.0
2016-Feb-08 10:33N 28°08' W 015°25'  
2016-Feb-03 02:17N 28°03' W 016°18'1111.4
2016-Feb-03 01:17N 28°11' W 016°09'811.5
2016-Feb-03 00:33N 28°18' W 016°04'10 9.9
2016-Feb-02 23:33N 28°27' W 016°11'4 3.6
2016-Feb-02 22:32N 28°28' W 016°15'0 0.0
2016-Feb-02 21:29N 28°28' W 016°15'0 0.0
2016-Feb-02 20:32N 28°28' W 016°15'0 0.0
2016-Feb-02 19:20N 28°28' W 016°15'0 0.0
2016-Feb-02 18:23N 28°28' W 016°15'0 0.0
2016-Feb-02 17:32N 28°28' W 016°15'0 0.0
2016-Feb-02 16:20N 28°28' W 016°15'0 0.0
2016-Feb-02 15:26N 28°28' W 016°15'0 0.0
2016-Feb-02 14:26N 28°28' W 016°15'0 0.0
2016-Feb-02 13:26N 28°28' W 016°15'0 0.0
2016-Feb-02 12:29N 28°28' W 016°15'0 0.0
2016-Feb-02 11:29N 28°28' W 016°15'0 0.0
2016-Feb-02 10:29N 28°28' W 016°15'0 0.0
2016-Feb-02 09:29N 28°28' W 016°15'0 0.0
2016-Feb-02 08:32N 28°28' W 016°15'0 0.0
2016-Feb-02 07:29N 28°28' W 016°15'0 0.0
2016-Feb-02 06:32N 28°28' W 016°15'0 0.0
2016-Feb-02 05:33N 28°28' W 016°15'7 7.5
2016-Feb-02 04:34N 28°27' W 016°06'1110.9
2016-Feb-02 03:34N 28°28' W 015°54'1010.4
2016-Feb-02 02:34N 28°35' W 015°46'9 9.2
2016-Feb-02 01:34N 28°32' W 015°36'10 9.9
2016-Feb-02 00:34N 28°26' W 015°27'9 9.3
2016-Feb-01 23:34N 28°19' W 015°21'1010.2
2016-Feb-01 22:33N 28°09' W 015°23'2 2.1
2016-Feb-01 21:26N 28°08' W 015°25'0 0.0
2016-Feb-01 20:29N 28°08' W 015°25'0 0.0
2016-Feb-01 19:29N 28°08' W 015°25'0 0.0
2016-Feb-01 18:29N 28°08' W 015°25'0 0.0
2016-Feb-01 17:32N 28°08' W 015°25'0 0.0
2016-Feb-01 16:32N 28°08' W 015°25'0 0.0
2016-Feb-01 15:32N 28°08' W 015°25'0 0.0
2016-Feb-01 14:32N 28°08' W 015°25'0 0.0
2016-Feb-01 13:32N 28°08' W 015°25'0 0.0
2016-Feb-01 12:32N 28°08' W 015°25'0 0.0
2016-Feb-01 11:32N 28°08' W 015°25'0 0.0
2016-Feb-01 10:23N 28°08' W 015°25'0 0.0
2016-Feb-01 09:23N 28°08' W 015°25'0 0.0
2016-Feb-01 08:26N 28°08' W 015°25'0 0.0
2016-Feb-01 07:26N 28°08' W 015°25'0 0.0
2016-Feb-01 06:30N 28°08' W 015°25'7 7.6
2016-Feb-01 05:33N 28°07' W 015°17'1211.8
2016-Feb-01 04:33N 28°07' W 015°04'1110.8
2016-Feb-01 03:33N 28°05' W 014°52'1111.1
2016-Feb-01 02:33N 28°01' W 014°40'1110.8
2016-Feb-01 01:33N 27°57' W 014°29'1111.3
2016-Feb-01 00:33N 27°59' W 014°16'1211.7
2016-Jan-31 23:33N 28°04' W 014°04'1211.7
2016-Jan-31 22:33N 28°09' W 013°52'1211.7
2016-Jan-31 21:30N 28°21' W 013°46'1111.5
2016-Jan-31 20:33N 28°31' W 013°42'1111.3
2016-Jan-31 19:33N 28°41' W 013°38'  

Dump ship's entire track history